Location: Haulchin
(50.3172°N, 3.4360°E)
Time: 02:50:21
(UTC+00:00)

Cosmos 676 Rocket - Pass Details

Date: 23 May 2024
Orbit: 752 x 781 km, 74.0° (Epoch: 21 June)

Event Time Altitude Azimuth Distance (km) Brightness Sun altitude
Exits shadow 00:42:53 29° 172° (S) 1,390 4.8 -17.8°
Maximum altitude 00:45:23 56° 108° (ESE) 927 4.4 -17.7°
Drops below altitude 10° 00:50:35 10° 31° (NNE) 2,348 7.7 -17.5°
Sets 00:53:01 0° 27° (NNE) 3,280 8.9 -17.4°
